Погода в Алдиарове

Россия / Чувашская Республика     55°35′16″N   47°45′37″E
темп.,
°C
ветер,
м/с
пор.,
м/с
влажн.,
%
обл.,
%
осадки,
мм/ч
давл.,
гПа
погр.,
м
11 апреля, вс
вс1100:00+1с36100100 0.2 1025139
03:00+1с36100100 0.2 1027140
06:00+1с48100100 0.1 1027198
09:00+2с37100100 1.1 1029218
12:00+3с47100100 0.0 1030251
15:00+4с23100100 0.0 1032145
18:00+3с24100100 0.0 103269
21:00+2ссв2699100 0.0 1033127
12 апреля, пн
пн1200:00+1всв2698100 0.9 1035121
03:00+1всв3890100 2.7 1036186
06:00+1св3889100 1.6 1037203
09:00+3всв41283100 1.7 1037268
12:00+3всв41089100 0.0 1037292
15:00+5в41191100 0.0 1037318
18:00+5в41291100 0.0 1036278
21:00+3в399391 0.0 1037154
13 апреля, вт
вт1300:00+3в3595100 0.0 103680
03:00+3вюв369697 0.0 103677
06:00+4юв369598 0.0 103593
09:00+10ююв4785100 0.0 1034247
12:00+15ююв466851 0.0 1033546
15:00+17ююв565868 0.0 1032874
18:00+13ююв486569 0.0 1031148
21:00+9ю356751 0.0 103163
14 апреля, ср
ср1400:00+8ю34696 0.0 103148
03:00+6ю33715 0.0 103024
06:00+7ю227365 0.0 103023
09:00+12ю455653 0.0 1029309
12:00+16ю454162 0.0 1028737
15:00+17ююв45335 0.0 1026941
18:00+13ююв47503 0.0 1025126
21:00+9ю33595 0.0 102536
15 апреля, чт
чт1500:00+8ю33675 0.0 102418
03:00+7ю227317 0.0 102412
06:00+7ю22755 0.0 102322
09:00+13ю34555 0.0 1022345
12:00+16ююз34435 0.0 10201010
15:00+18ююз34385 0.0 10191418
18:00+15ю22510 0.0 101726
21:00+11ссз22625 0.0 101812